Location: Unspecified
(0.0000°N, 0.0000°E)
Time: 03:36:44
(UTC+00:00)

A-11 Canister half - Pass Details

Date: 14 February 2023
Orbit: 1526 x 1682 km, 47.3° (Epoch: 25 March)

Event Time Altitude Azimuth Distance (km) Brightness Sun altitude
Rises 09:20:53 0° 353° (N) 4,711 11.4 45.1°
Reaches altitude 10° 09:26:03 10° 16° (NNE) 3,761 11.1 46.4°
Maximum altitude 09:30:40 14° 46° (NE) 3,455 11.3 47.4°
Drops below altitude 10° 09:35:21 10° 76° (ENE) 3,827 11.8 48.5°
Sets 09:40:37 0° 98° (E) 4,850 12.2 49.8°
